Location: *
(55.5817°S, 142.4781°W)
Time: 06:59:12
(UTC+00:00)

ATLAS 5 CENTAUR R/B - Pass Details

Date: 29 April 2025
Orbit: 389 x 1115 km, 63.3° (Epoch: 23 May)

Event Time Altitude Azimuth Distance (km) Brightness Sun altitude
Exits shadow 15:15:41 17° 279° (W) 2,485 4.0 -13.7°
Maximum altitude 15:21:17 57° 204° (SSW) 1,220 2.8 -12.9°
Drops below altitude 10° 15:27:35 10° 125° (SE) 2,656 5.5 -12.0°
Sets 15:30:01 0° 121° (ESE) 3,498 6.3 -11.7°
